When you browse on this site, cookies collect data to enhance your experience and personalize the content and advertising you see.
Visit our Privacy Policy to learn more. By continuing to use the site, you agree to this use of cookies and data.
  • In Sweden
  • List of Countries
  • For 7 days
  • Water Temperature
  • Satellite Maps
  • Weather Map
  • Weather Widgets
  • user-avatar
    Login

    Hourly Weather Maldon

    Today, 27 June, Thursday

    Time Temperature Precipitation Wind Pressure Humidity
    00:00 +12°C° 0 mm 5 mps 770 mmHg 94%
    01:00 +11°C° 0 mm 6 mps 770 mmHg 94%
    02:00 +11°C° 0 mm 6 mps 770 mmHg 93%
    03:00 +11°C° 0 mm 6 mps 770 mmHg 93%
    04:00 +11°C° 0 mm 6 mps 770 mmHg 90%
    05:00 +13°C° 0 mm 6 mps 770 mmHg 88%
    06:00 +13°C° 0 mm 6 mps 770 mmHg 85%
    07:00 +14°C° 0 mm 7 mps 770 mmHg 81%
    08:00 +15°C° 0 mm 7 mps 770 mmHg 77%
    09:00 +17°C° 0 mm 7 mps 770 mmHg 74%
    10:00 +17°C° 0 mm 7 mps 770 mmHg 74%
    11:00 +18°C° 0 mm 7 mps 770 mmHg 75%
    12:00 +18°C° 0 mm 7 mps 770 mmHg 76%
    13:00 +18°C° 0 mm 7 mps 770 mmHg 75%
    14:00 +18°C° 0 mm 7 mps 770 mmHg 74%
    15:00 +18°C° 0 mm 7 mps 770 mmHg 74%
    16:00 +18°C° 0 mm 7 mps 769 mmHg 76%
    17:00 +17°C° 0 mm 7 mps 769 mmHg 77%
    18:00 +16°C° 0 mm 7 mps 769 mmHg 79%
    19:00 +15°C° 0 mm 7 mps 769 mmHg 83%
    20:00 +14°C° 0 mm 6 mps 769 mmHg 88%
    21:00 +13°C° 0 mm 6 mps 769 mmHg 92%
    22:00 +11°C° 0 mm 6 mps 769 mmHg 92%
    23:00 +11°C° 0 mm 6 mps 769 mmHg 93%

    Tomorrow, 28 June, Friday

    Time Temperature Precipitation Wind Pressure Humidity
    00:00 +11°C° 0 mm 6 mps 769 mmHg 94%
    01:00 +10°C° 0 mm 5 mps 769 mmHg 94%
    02:00 +10°C° 0 mm 5 mps 768 mmHg 94%
    03:00 +10°C° 0 mm 5 mps 768 mmHg 95%
    04:00 +12°C° 0 mm 5 mps 768 mmHg 93%
    05:00 +13°C° 0 mm 6 mps 768 mmHg 91%
    06:00 +14°C° 0 mm 6 mps 768 mmHg 89%
    07:00 +15°C° 0 mm 6 mps 767 mmHg 86%
    08:00 +16°C° 0 mm 6 mps 767 mmHg 82%
    09:00 +17°C° 0 mm 6 mps 767 mmHg 79%
    10:00 +19°C° 0 mm 6 mps 767 mmHg 77%
    11:00 +19°C° 0 mm 6 mps 767 mmHg 76%
    12:00 +18°C° 0 mm 7 mps 766 mmHg 74%
    13:00 +19°C° 0 mm 6 mps 766 mmHg 73%
    14:00 +20°C° 0 mm 6 mps 766 mmHg 72%
    15:00 +20°C° 0 mm 6 mps 766 mmHg 71%
    16:00 +19°C° 0 mm 6 mps 765 mmHg 74%
    17:00 +17°C° 0 mm 6 mps 765 mmHg 76%
    18:00 +17°C° 0 mm 6 mps 765 mmHg 79%
    19:00 +16°C° 0 mm 5 mps 765 mmHg 83%
    20:00 +15°C° 0 mm 5 mps 764 mmHg 87%
    21:00 +14°C° 0 mm 5 mps 764 mmHg 90%
    22:00 +14°C° 0 mm 5 mps 764 mmHg 91%
    23:00 +14°C° 0 mm 4 mps 764 mmHg 92%

    Day after tomorrow, 29 June, Saturday

    Time Temperature Precipitation Wind Pressure Humidity
    00:00 +14°C° 0 mm 4 mps 763 mmHg 93%
    01:00 +14°C° 0 mm 4 mps 763 mmHg 93%
    02:00 +14°C° 0 mm 4 mps 763 mmHg 93%
    03:00 +15°C° 0 mm 4 mps 762 mmHg 93%
    04:00 +17°C° 0 mm 4 mps 762 mmHg 90%
    05:00 +17°C° 0 mm 4 mps 762 mmHg 88%
    06:00 +18°C° 0 mm 4 mps 762 mmHg 85%
    07:00 +19°C° 0 mm 4 mps 761 mmHg 81%
    08:00 +20°C° 0 mm 4 mps 761 mmHg 77%
    09:00 +22°C° 0 mm 4 mps 761 mmHg 73%
    10:00 +23°C° 0 mm 4 mps 760 mmHg 70%
    11:00 +25°C° 0 mm 4 mps 760 mmHg 67%
    12:00 +26°C° 0 mm 4 mps 759 mmHg 64%
    13:00 +26°C° 0 mm 5 mps 759 mmHg 63%
    14:00 +26°C° 0 mm 5 mps 759 mmHg 62%
    15:00 +27°C° 0 mm 5 mps 758 mmHg 61%
    16:00 +26°C° 0 mm 4 mps 758 mmHg 64%
    17:00 +26°C° 0 mm 4 mps 758 mmHg 67%
    18:00 +26°C° 0 mm 4 mps 757 mmHg 70%
    19:00 +24°C° 0 mm 3 mps 757 mmHg 74%
    20:00 +22°C° 0 mm 3 mps 757 mmHg 77%
    21:00 +21°C° 0 mm 3 mps 757 mmHg 81%
    22:00 +20°C° 0 mm 3 mps 757 mmHg 85%
    23:00 +20°C° 0 mm 3 mps 757 mmHg 89%

    30 June, Sunday

    Time Temperature Precipitation Wind Pressure Humidity
    00:00 +19°C° 0 mm 4 mps 757 mmHg 93%
    01:00 +18°C° 0 mm 4 mps 758 mmHg 89%
    02:00 +17°C° 0 mm 4 mps 758 mmHg 85%
    03:00 +15°C° 0 mm 4 mps 758 mmHg 80%
    04:00 +15°C° 0 mm 4 mps 758 mmHg 81%
    05:00 +15°C° 0 mm 4 mps 759 mmHg 81%
    06:00 +15°C° 0 mm 4 mps 759 mmHg 81%
    07:00 +18°C° 0 mm 4 mps 759 mmHg 78%
    08:00 +19°C° 0 mm 4 mps 760 mmHg 75%
    09:00 +20°C° 0 mm 3 mps 760 mmHg 72%
    10:00 +21°C° 0 mm 3 mps 760 mmHg 67%
    11:00 +22°C° 0 mm 3 mps 760 mmHg 63%
    12:00 +25°C° 0 mm 3 mps 760 mmHg 59%
    13:00 +25°C° 0 mm 3 mps 760 mmHg 58%
    14:00 +25°C° 0 mm 4 mps 760 mmHg 57%
    15:00 +25°C° 0 mm 4 mps 760 mmHg 57%
    16:00 +25°C° 0 mm 4 mps 760 mmHg 61%
    17:00 +23°C° 0 mm 4 mps 760 mmHg 66%
    18:00 +22°C° 0 mm 4 mps 760 mmHg 71%
    19:00 +21°C° 0 mm 4 mps 760 mmHg 73%
    20:00 +19°C° 0 mm 4 mps 760 mmHg 76%
    21:00 +17°C° 0 mm 4 mps 761 mmHg 78%
    22:00 +17°C° 0 mm 4 mps 761 mmHg 82%
    23:00 +15°C° 0 mm 4 mps 761 mmHg 85%

    1 July, Monday

    Time Temperature Precipitation Wind Pressure Humidity
    00:00 +14°C° 0 mm 5 mps 761 mmHg 88%
    01:00 +13°C° 0 mm 4 mps 761 mmHg 89%
    02:00 +13°C° 0 mm 4 mps 761 mmHg 90%
    03:00 +12°C° 0 mm 4 mps 761 mmHg 91%
    04:00 +12°C° 0 mm 4 mps 761 mmHg 89%
    05:00 +13°C° 0 mm 4 mps 761 mmHg 87%
    06:00 +13°C° 0 mm 5 mps 762 mmHg 86%
    07:00 +14°C° 0 mm 5 mps 762 mmHg 79%
    08:00 +15°C° 0 mm 5 mps 762 mmHg 73%
    09:00 +17°C° 0 mm 5 mps 762 mmHg 67%
    10:00 +17°C° 0 mm 5 mps 762 mmHg 66%
    11:00 +17°C° 0 mm 5 mps 763 mmHg 65%
    12:00 +19°C° 0 mm 5 mps 763 mmHg 64%
    13:00 +19°C° 0 mm 5 mps 763 mmHg 64%
    14:00 +19°C° 0 mm 5 mps 763 mmHg 65%
    15:00 +19°C° 0 mm 5 mps 763 mmHg 65%
    16:00 +17°C° 0 mm 5 mps 763 mmHg 67%
    17:00 +18°C° 0 mm 4 mps 763 mmHg 69%
    18:00 +18°C° 0 mm 4 mps 763 mmHg 70%
    19:00 +17°C° 0 mm 3 mps 763 mmHg 75%
    20:00 +16°C° 0 mm 3 mps 763 mmHg 79%
    21:00 +14°C° 0 mm 3 mps 764 mmHg 83%
    22:00 +14°C° 0 mm 3 mps 764 mmHg 85%
    23:00 +13°C° 0 mm 3 mps 764 mmHg 86%

    2 July, Tuesday

    Time Temperature Precipitation Wind Pressure Humidity
    00:00 +12°C° 0 mm 3 mps 764 mmHg 88%
    01:00 +12°C° 0 mm 4 mps 764 mmHg 90%
    02:00 +11°C° 0 mm 4 mps 764 mmHg 92%
    03:00 +11°C° 0 mm 4 mps 764 mmHg 94%
    04:00 +11°C° 0 mm 4 mps 765 mmHg 92%
    05:00 +12°C° 0 mm 4 mps 765 mmHg 89%
    06:00 +12°C° 0 mm 4 mps 765 mmHg 87%
    07:00 +13°C° 0 mm 4 mps 766 mmHg 85%
    08:00 +14°C° 0 mm 4 mps 766 mmHg 82%
    09:00 +15°C° 0 mm 5 mps 766 mmHg 80%
    10:00 +16°C° 0.1 mm 5 mps 767 mmHg 76%
    11:00 +16°C° 0.1 mm 5 mps 767 mmHg 72%
    12:00 +17°C° 0.1 mm 5 mps 767 mmHg 69%
    13:00 +16°C° 0 mm 5 mps 767 mmHg 70%
    14:00 +17°C° 0 mm 4 mps 767 mmHg 71%
    15:00 +15°C° 0 mm 4 mps 767 mmHg 73%
    16:00 +15°C° 0 mm 4 mps 767 mmHg 72%
    17:00 +15°C° 0 mm 4 mps 767 mmHg 71%
    18:00 +15°C° 0 mm 4 mps 767 mmHg 70%
    19:00 +14°C° 0 mm 4 mps 767 mmHg 76%
    20:00 +12°C° 0 mm 4 mps 767 mmHg 82%
    21:00 +10°C° 0 mm 3 mps 767 mmHg 88%
    22:00 +10°C° 0 mm 3 mps 767 mmHg 88%
    23:00 +9°C° 0 mm 3 mps 767 mmHg 89%
    Show more